Regional Weather Roundup
Issued by NWS

Home | Current Version | Previous Version | Text Only | Print | Product List | Glossary Off
Versions: 1 2 3 4 5 6 7 8 9 10 11 12 13 14 15 16 17 18 19 20 21 22 23 24 25 26 27 28 29 30 31 32 33 34 35 36 37 38 39 40 41 42 43 44 45 46 47 48 49 50

000
ASUS43 KMPX 171810
RWRMN
WEATHER ROUNDUP FOR MINNESOTA
NATIONAL WEATHER SERVICE TWIN CITIES/CHANHASSEN MN
1200 PM CST SAT FEB 17 2018


NOTE: "FAIR" INDICATES FEW OR NO CLOUDS BELOW 12,000 FEET WITH NO
SIGNIFICANT WEATHER AND/OR OBSTRUCTIONS TO VISIBILITY. N/A MEANS
CURRENT SKY AND/OR WEATHER CONDITIONS ARE NOT AVAILABLE.

MNZ060>063-068>070-171900-
   Twin Cities Metro

CITY           SKY/WX    TMP DP  RH WIND       PRES   REMARKS
TWIN CITIES    CLOUDY    31  25  78 W6        29.90S WCI  25
6HR MIN TEMP:  24; 6HR MAX TEMP:  31; 6HR PCP:  0.01;

ST PAUL        CLOUDY    29  23  78 W8        29.91S WCI  21
CRYSTAL        PTSUNNY   31  21  66 W8        29.88S WCI  23
BLAINE         PTSUNNY   34  23  64 W7        29.87F WCI  28
LAKEVILLE      CLOUDY    28  23  80 W9        29.89S WCI  20
EDEN PRAIRIE   CLOUDY    31  24  75 W7        29.88F WCI  24
6HR MIN TEMP:  24; 6HR MAX TEMP:  30; 6HR PCP: TRACE;

SOUTH ST PAUL  PTSUNNY   30  23  76 W7        29.90S WCI  23
LAKE ELMO      CLOUDY    30  25  80 W8        29.89F WCI  23
$$
MNZ001>005-007-008-013>017-022>024-027-028-171900-
   Northwest Minnesota

CITY           SKY/WX    TMP DP  RH WIND       PRES   REMARKS
BEMIDJI        FLURRIES  20  12  71 W15G21    29.83R WCI   6
HALLOCK        FAIR      18   7  62 NW14      29.89R WCI   4
WARROAD        FAIR      16   7  67 W12       29.81R WCI   3
THIEF RVR FALL FAIR      18  11  74 W15       29.87R WCI   4
CROOKSTON      FAIR      19  12  73 NW20      29.91R WCI   4
FOSSTON        FLURRIES  18  10  73 W15       29.87R WCI   3
DETROIT LAKES  PTSUNNY   21  14  73 NW17      29.90R WCI   7
MOORHEAD       FAIR      23  14  68 W17       29.95R WCI   9
PARK RAPIDS    FAIR      22  14  71 W18       29.84R WCI   7
MAHNOMEN       MOCLDY    19  13  77 W15G21    29.89R WCI   5
$$
MNZ006-009>011-018-025>026-171900-
   North Central Minnesota

CITY           SKY/WX    TMP DP  RH WIND       PRES   REMARKS
BAUDETTE       FAIR      17   4  56 NW13      29.78R WCI   4
FLAG ISLAND    FAIR      16   3  57 NW17      29.77S WCI   0
INTL FALLS     FAIR      19   7  59 W12G21    29.76R WCI   7
6HR MIN TEMP:  15; 6HR MAX TEMP:  19;

WASKISH        CLOUDY    19  10  68 W9        29.81S WCI   9
BIG FORK       CLOUDY    23  10  58 W5        29.79R WCI  17
LONGVILLE      PTSUNNY   25  12  58 W7        29.83R WCI  17
GRAND RAPIDS   FAIR      23  11  60 NW17G24   29.81R WCI   9
CRANE LAKE     FAIR      21   7  53 W3        29.77R
ORR            FAIR      23   7  50 W6        29.73R WCI  16
COOK           CLOUDY    19  10  68 W14G20    29.76R WCI   6
WALKER         CLOUDY    23  13  63 W12       29.83R WCI  12
$$
MNZ012-019>021-037-171900-
   Northeast Minnesota

CITY           SKY/WX    TMP DP  RH WIND       PRES   REMARKS
DULUTH         FAIR      25  13  60 W20       29.76S WCI  11
6HR MIN TEMP:  14; 6HR MAX TEMP:  26;

ELY            FAIR      21  10  63 W15       29.72R WCI   8
HIBBING        PTSUNNY   24  10  55 NW9G18    29.77R WCI  14
EVELETH        PTSUNNY  N/A N/A N/A NW12      29.77R
DULUTH HARBOR  FAIR      28  18  64 W18       29.82S WCI  16
TWO HARBORS    FAIR      34  16  47 W16G23    29.74S WCI  23
GRAND MARAIS     N/A     29  19  66 SW23      29.72F WCI  15
G MARAIS ARPRT PTSUNNY   27   7  43 SW12G17   29.65S WCI  16
$$
MNZ029>031-032-039>041-046>048-054>057-064-171900-
   West Central Minnesota

CITY           SKY/WX    TMP DP  RH WIND       PRES   REMARKS
FERGUS FALLS   FAIR      25  16  68 NW17G26   29.92R WCI  11
WHEATON        CLOUDY    30  10  43 W18G24    29.97R WCI  18
MORRIS         MOSUNNY   34  16  47 NW22G28   29.91S WCI  22
ALEXANDRIA     FAIR      30  13  49 NW17G23   29.89R WCI  18
ELBOW LAKE     FAIR      28  15  58 NW18G24   29.92R WCI  15
WADENA         FAIR      23  14  68 W14G20    29.87R WCI  11
GLENWOOD       FAIR      30  16  55 NW21      29.89S WCI  17
APPLETON       SUNNY     34  16  47 NW16      29.94S WCI  23
BENSON         SUNNY     34  16  47 N18G24    29.94R WCI  23
ORTONVILLE     SUNNY     32  18  55 NW12G17   29.94S WCI  23
MADISON        SUNNY     36  19  51 NW16      29.95R
WILLMAR        FAIR      34  18  51 NW16      29.93R WCI  23
$$
MNZ033>034-036-042>043-049>051-058-059-171900-
   Central Minnesota

CITY           SKY/WX    TMP DP  RH WIND       PRES   REMARKS
ST CLOUD       FAIR      33  18  53 NW16      29.87S WCI  23
6HR MIN TEMP:  17; 6HR MAX TEMP:  33;

SAUK CENTRE    FAIR      30  14  51 W15G22    29.89S WCI  19
PAYNESVILLE    FAIR      33  18  54 NW14G22   29.89S WCI  23
AITKIN         FAIR      27  14  59 W12       29.82S WCI  16
PINE RIVER     FAIR      25  12  58 W12G17    29.88R WCI  14
BRAINERD       FAIR      28  14  55 W9        29.85S WCI  19
STAPLES        FAIR      25  16  68 W15       29.86S WCI  12
LONG PRAIRIE   FAIR      28  12  50 W15G21    29.88S WCI  17
LITTLE FALLS   FAIR      30   9  40 W12G18    29.88R WCI  21
LITCHFIELD     FAIR      36  19  51 NW14      29.89R
BUFFALO        FAIR      32  19  59 NW10      29.89S WCI  24
MAPLE LAKE     FAIR      33  21  59 W9        29.89S WCI  26
HUTCHINSON     FAIR      35  22  58 W13G18    29.90R WCI  27
$$
MNZ037-044-045-052-053-171900-
   East Central Minnesota

CITY           SKY/WX    TMP DP  RH WIND       PRES   REMARKS
PRINCETON      FAIR      36  18  48 W10       29.87S
MORA           FAIR      34  18  51 W10       29.86F WCI  26
CAMBRIDGE        N/A     34  19  55 W10       29.87S WCI  26
RUSH CITY      FAIR      32  18  55 W6        29.86S WCI  26
MOOSE LAKE     FAIR      30  14  51 W12G18    29.81S WCI  21
HINCKLEY       FAIR      32  19  59 W8        29.84S WCI  25
CLOQUET        FAIR      25  12  58 W13G20    29.79S WCI  13
MCGREGOR       FAIR      28  18  64 W6        29.83R WCI  22
$$
MNZ071>073-080-081-089-090-097-098-171900-
   Southwest Minnesota

CITY           SKY/WX    TMP DP  RH WIND       PRES   REMARKS
MONTEVIDEO     SUNNY     37  19  48 N12G18    29.93S
GRANITE FALLS  SUNNY     37  21  54 NW16G22   29.94S
CANBY          SUNNY     35  20  54 NW12      29.95R WCI  27
MARSHALL       SUNNY     34  21  59 NW17G23   29.93R WCI  23
REDWOOD FALLS  SUNNY     34  20  56 NW15      29.91R WCI  24
OLIVIA         SUNNY     34  21  60 NW15      29.90S WCI  24
PIPESTONE      MOSUNNY   30  25  80 NW15      29.92R WCI  19
WINDOM         SUNNY     32  16  51 W13       29.91R WCI  22
WORTHINGTON    PTSUNNY   30  25  81 W17       29.93R WCI  18
JACKSON        SUNNY     28  23  80 W15       29.92R WCI  17
TRACY          MOSUNNY   34  28  77 NW15G21   29.92R WCI  24
SLAYTON        MOSUNNY   31  27  84 W12       29.92R WCI  22
$$
MNZ065>067-074>077-082>085-091>093-171900-
   South Central Minnesota

CITY           SKY/WX    TMP DP  RH WIND       PRES   REMARKS
MANKATO        FAIR      31  24  75 W9        29.91S WCI  23
NEW ULM        SUNNY     28  25  86 W9        29.91R WCI  20
ST JAMES       CLOUDY    30  25  80 W14       29.93R WCI  20
FAIRMONT       FLURRIES  30  24  78 W16       29.92R WCI  19
GLENCOE        FAIR      33  25  71 NW8       29.89S WCI  26
FARIBAULT      PTSUNNY   28  21  74 SW5       29.90F WCI  23
OWATONNA       PTSUNNY   27  23  86 SW10      29.89F WCI  17
WASECA         CLOUDY    27  23  86 W12       29.92S WCI  16
ALBERT LEA     CLOUDY    27  21  80 W7        29.90F WCI  19
$$
MNZ078>079-086>088-094>096-171900-
   Southeast Minnesota

CITY           SKY/WX    TMP DP  RH WIND       PRES   REMARKS
ROCHESTER      LGT SNOW  23  21  92 SW15      29.89S VSB 3/4 WCI  10
6HR MIN TEMP:  20; 6HR MAX TEMP:  23; 6HR PCP:  0.08;

RED WING       CLOUDY    28  19  69 W7        29.90S WCI  21
STANTON        CLOUDY    29  23  78 SW7       29.88F WCI  22
DODGE CENTER   CLOUDY    25  21  86 SW12      29.88F WCI  14
WINONA         LGT SNOW  28  23  80 CALM      29.92R VSB 1
AUSTIN         LGT SNOW  25  19  80 SW10      29.90F WCI  15
PRESTON        LGT SNOW  23  20  87 SW9       29.90S VSB 1   WCI  13
$$
ABBREVIATIONS USED IN REMARKS
   TC - TEMPERATURES IN CELSIUS
  WCI - WIND CHILL INDEX
   HX - HEAT INDEX
  VSB - VISIBILITY
$$




USA.gov is the U.S. government's official web portal to all federal, state and local government web resources and services.